FENGYUN 1C DEB

Satellite information

Favourite Embed

Satellite Type and Status

DEBRISIN ORBIT

Key statistics

Satellite FENGYUN 1C DEB at a glance.

Uptime

9493

Days in orbit

Revolutions

≈ 14.6

Per day

Orbit

SSO

Sun Synchronous Orbit

Inclination

99.1

Latest

Satellite identification and parameters

Extended collection of information and parameters for FENGYUN 1C DEB.

Object identification

Identified? True

Debris? True

Object name: FENGYUN 1C DEB

International designator: 1999-025DBW

Object number (NORAD): 32458

Object ID (CCSDS): 32458

Country: PEOPLES REPUBLIC OF CHINA (PRC)

Current information (Y/N): Y

RCS size: SMALL

Orbital parameters

Period: 98.733 minutes

Inclination: 99.0529 deg

SMA: 7076.249 km

Apoapsis: 728.03 km

Periapsis: 668.198 km

RAAN: 122.155 deg

Eccentricy: 0.0042276

Argument of periapsis: 337.7145 deg

Mean anomaly: 22.2213 deg

Mean motion: 14.58472014 rev/day

Mean motion (dot): 0.00014476 rev/day2

B* drag term: 0.0030865 1/REarth

Two-line elements (TLE)

Creation date: May 4, 2025, 7:06 a.m.

Reference frame: TEME

Reference center: EARTH

Epoch: May 2, 2025, 5:15 p.m. UTC

TLE line 0: 0 FENGYUN 1C DEB

TLE line 1: 1 32458U 99025DBW 25122.71925607 .00014476 00000-0 30865-2 0 9992

TLE line 2: 2 32458 99.0529 122.1550 0042276 337.7145 22.2213 14.58472014931668

Live tracking on map

Real-time ground track for satellite FENGYUN 1C DEB.

In-orbit conjunctions

A list of the most updated potential collisions computed for object FENGYUN 1C DEB.

Target Orbit TCA Probability of collision Miss distance Type
SL-8 R/B LEO 2025-01-07 09:36:14 0.0003122889 364.0 (m) ROCKET BODY

Associated space launch

Chinese polar orbiting meteorological satellite

FENGYUN 1C DEB was lifted into orbit during the mission ‘Long March 4B | Feng Yun 1C’, on board a Long March 4B space rocket.

The launch took place on May 10, 1999, 1:33 a.m. from Launch Complex 7.

For more information about the launch, click the button.

Launch to space Long March 4B | Feng Yun 1C
Long March 4B | Feng Yun 1C

Agency: N/A

Status: Launch Successful

Launch date: May 10, 1999, 1:33 a.m. UTC

Rocket: Long March 4B

Launch pad: Launch Complex 7

Location: Taiyuan Satellite Launch Center, People's Republic of China

...

Latest news about this satellite

There are no fresh news available about this satellite. Check back as we update our databases every day.


Newsletter sign-up

Weekly statistics, charts and insights to help you stay on top of the space industry.